2023/12/17 00:00:00, 0.0, 0.4
2023/12/17 00:10:00, 0.0, 0.4
2023/12/17 00:20:00, 0.0, 0.4
2023/12/17 00:30:00, 0.0, 0.3
2023/12/17 00:40:00, 0.0, 0.3
2023/12/17 00:50:00, 0.0, 0.3
2023/12/17 01:00:00, 0.0, 0.1
2023/12/17 01:10:00, 0.0,-0.4
2023/12/17 01:20:00, 0.0,-0.5
2023/12/17 01:30:00, 0.0,-0.7
2023/12/17 01:40:00, 0.0,-0.5
2023/12/17 01:50:00, 0.0,-0.6
2023/12/17 02:00:00, 0.0,-0.9
2023/12/17 02:10:00, 0.0,-0.9
2023/12/17 02:20:00, 0.0,-1.0
2023/12/17 02:30:00, 0.0,-1.3
2023/12/17 02:40:00,---,-1.5
2023/12/17 02:50:00, 1.7,-1.4
2023/12/17 03:00:00, 1.6,-1.3
2023/12/17 03:10:00,---,-1.6
2023/12/17 03:20:00, 2.7,-2.0
2023/12/17 03:30:00, 2.7,-2.0
2023/12/17 03:40:00, 2.7,-2.0
2023/12/17 03:50:00, 3.1,-2.3
2023/12/17 04:00:00, 3.5,-2.1
2023/12/17 04:10:00, 3.1,-2.4
2023/12/17 04:20:00, 4.0,-2.3
2023/12/17 04:30:00, 4.4,-2.3
2023/12/17 04:40:00, 4.5,-2.4
2023/12/17 04:50:00, 4.3,-2.4
2023/12/17 05:00:00, 4.2,-2.4
2023/12/17 05:10:00, 4.7,-2.4
2023/12/17 05:20:00, 6.0,-2.6
2023/12/17 05:30:00, 6.1,-2.7
2023/12/17 05:40:00, 6.5,-2.5
2023/12/17 05:50:00, 7.2,-2.7
2023/12/17 06:00:00, 7.4,-2.8
2023/12/17 06:10:00, 7.8,-3.0
2023/12/17 06:20:00, 8.2,-3.0
2023/12/17 06:30:00, 8.6,-2.9
2023/12/17 06:40:00, 8.3,-2.8
2023/12/17 06:50:00, 8.9,-2.8
2023/12/17 07:00:00, 9.9,-2.5
2023/12/17 07:10:00,10.3,-3.0
2023/12/17 07:20:00,11.0,-3.1
2023/12/17 07:30:00,12.4,-3.2
2023/12/17 07:40:00,13.7,-3.3
2023/12/17 07:50:00,14.4,-3.3
2023/12/17 08:00:00,14.8,-3.3
2023/12/17 08:10:00,15.3,-3.3
2023/12/17 08:20:00,15.2,-3.2
2023/12/17 08:30:00,15.0,-3.1
2023/12/17 08:40:00,15.6,-2.9
2023/12/17 08:50:00,15.9,-2.9
2023/12/17 09:00:00,16.2,-3.0
2023/12/17 09:10:00,16.5,-2.8
2023/12/17 09:20:00,16.5,-2.8
2023/12/17 09:30:00,16.2,-2.9
2023/12/17 09:40:00,16.7,-2.4
2023/12/17 09:50:00,16.7,-2.4
2023/12/17 10:00:00,16.2,-2.4
2023/12/17 10:10:00,16.0,-2.1
2023/12/17 10:20:00,15.6,-1.7
2023/12/17 10:30:00,15.1,-2.1
2023/12/17 10:40:00,15.3,-2.1
2023/12/17 10:50:00,15.3,-2.3
2023/12/17 11:00:00,14.9,-2.1
2023/12/17 11:10:00,15.0,-1.8
2023/12/17 11:20:00,15.1,-1.9
2023/12/17 11:30:00,14.9,-1.7
2023/12/17 11:40:00,14.2,-1.8
2023/12/17 11:50:00,15.0,-2.0
2023/12/17 12:00:00,15.5,-2.1
2023/12/17 12:10:00,15.2,-2.1
2023/12/17 12:20:00,15.2,-2.0
2023/12/17 12:30:00,15.3,-1.6
2023/12/17 12:40:00,15.5,-2.0
2023/12/17 12:50:00,15.2,-1.7
2023/12/17 13:00:00,15.2,-1.9
2023/12/17 13:10:00,14.9,-1.8
2023/12/17 13:20:00,14.9,-1.9
2023/12/17 13:30:00,15.6,-2.4
2023/12/17 13:40:00,16.5,-2.4
2023/12/17 13:50:00,16.3,-2.6
2023/12/17 14:00:00,16.3,-2.4
2023/12/17 14:10:00,16.2,-2.3
2023/12/17 14:20:00,16.0,-2.5
2023/12/17 14:30:00,15.9,-2.4
2023/12/17 14:40:00,16.7,-2.7
2023/12/17 14:50:00,17.5,-2.6
2023/12/17 15:00:00,17.5,-2.2
2023/12/17 15:10:00,17.4,-2.8
2023/12/17 15:20:00,17.0,-2.8
2023/12/17 15:30:00,16.7,-2.8
2023/12/17 15:40:00,16.5,-2.8
2023/12/17 15:50:00,16.5,-2.8
2023/12/17 16:00:00,16.4,-2.8
2023/12/17 16:10:00,16.2,-2.8
2023/12/17 16:20:00,16.1,-2.9
2023/12/17 16:30:00,16.2,-2.9
2023/12/17 16:40:00,16.2,-2.9
2023/12/17 16:50:00,16.2,-3.1
2023/12/17 17:00:00,16.0,-3.1
2023/12/17 17:10:00,15.9,-3.3
2023/12/17 17:20:00,15.6,-3.1
2023/12/17 17:30:00,15.5,-3.2
2023/12/17 17:40:00,15.8,-3.3
2023/12/17 17:50:00,15.9,-3.3
2023/12/17 18:00:00,15.8,-3.3
2023/12/17 18:10:00,15.7,-3.3
2023/12/17 18:20:00,15.8,-3.2
2023/12/17 18:30:00,16.8,-3.3
2023/12/17 18:40:00,16.7,-3.2
2023/12/17 18:50:00,16.5,-3.2
2023/12/17 19:00:00,16.4,-3.3
2023/12/17 19:10:00,16.2,-3.0
2023/12/17 19:20:00,16.2,-3.2
2023/12/17 19:30:00,16.0,-3.3
2023/12/17 19:40:00,15.9,-3.5
2023/12/17 19:50:00,15.6,-3.3
2023/12/17 20:00:00,15.4,-3.2
2023/12/17 20:10:00,15.4,-3.4
2023/12/17 20:20:00,15.2,-3.2
2023/12/17 20:30:00,14.9,-3.0
2023/12/17 20:40:00,14.7,-3.3
2023/12/17 20:50:00,14.6,-3.2
2023/12/17 21:00:00,14.5,-3.2
2023/12/17 21:10:00,14.4,-3.2
2023/12/17 21:20:00,14.5,-3.2
2023/12/17 21:30:00,14.7,-3.1
2023/12/17 21:40:00,14.4,-3.1
2023/12/17 21:50:00,14.2,-3.1
2023/12/17 22:00:00,14.1,-2.9
2023/12/17 22:10:00,14.1,-3.0
2023/12/17 22:20:00,14.2,-3.0
2023/12/17 22:30:00,14.3,-3.2
2023/12/17 22:40:00,14.3,-3.3
2023/12/17 22:50:00,14.1,-3.1
2023/12/17 23:00:00,13.9,-3.2
2023/12/17 23:10:00,13.8,-3.1
2023/12/17 23:20:00,13.6,-3.1
2023/12/17 23:30:00,13.4,-3.1
2023/12/17 23:40:00,13.2,-3.2
2023/12/17 23:50:00,13.2,-3.0
